{"data":{"norad_id":55282,"intl_designator":"2023-010P","name":"STARLINK-5330","alt_names":[],"object_type":"PAYLOAD","status":"ACTIVE","operator":null,"country":"US","launch_date":"2023-01-19","launch_site_code":"AFWTR","launch_vehicle":null,"mission":null,"orbit_class":"UNKNOWN","rcs_meters":null,"size_class":null,"mass_kg":null,"dimensions":null,"purposes":["comms"],"wikipedia_slug":null,"has_3d_model":false,"image_url":null,"decayed_at":null,"tle_current":{"epoch":"2026-09-19T10:48:25.871616Z","epoch_age_seconds":183447,"freshness":"STALE","line1":"1 55282U 23010P   26262.45029944  .00048177  00000+0  39772-2 0  9999","line2":"2 55282  69.9981 275.7406 0002429 232.8158 127.2779 14.98723693201801","mean_motion":14.98723693,"eccentricity":0.0002429,"inclination_deg":69.9981,"raan_deg":275.7406,"arg_perigee_deg":232.8158,"mean_anomaly_deg":127.2779,"bstar":0.0039772,"rev_number":20180,"period_min":96.081753209462,"perigee_km":569.15078813767,"apogee_km":572.52660052998,"semimajor_km":6948.9756943338,"source":"CELESTRAK","updated_at":"2026-09-21T09:00:33.166901Z"}}}